TimeAST,TemperatureF,Dew PointF,Humidity,Sea Level PressureIn,VisibilityMPH,Wind Direction,Wind SpeedMPH,Gust SpeedMPH,PrecipitationIn,Events,Conditions,WindDirDegrees,DateUTC
12:00 AM,64,54,63,30.13,6,NW,6.9,,,,,310,2014-02-20 21:00:00
12:00 AM,64.4,55.4,73,30.12,-9999.0,NW,6.9,-,N/A,,Clear,310,2014-02-20 21:00:00
12:30 AM,62.6,55.4,77,30.12,-9999.0,NW,9.2,-,N/A,,Clear,320,2014-02-20 21:30:00
1:00 AM,62.6,55.4,77,30.09,-9999.0,NW,6.9,-,N/A,,Clear,310,2014-02-20 22:00:00
1:30 AM,62.6,55.4,77,30.09,-9999.0,NW,9.2,-,N/A,,Clear,310,2014-02-20 22:30:00
2:00 AM,62.6,59.0,88,30.09,-9999.0,WNW,6.9,-,N/A,,Clear,300,2014-02-20 23:00:00
2:30 AM,62.6,55.4,77,30.09,5.6,WNW,6.9,-,N/A,,Unknown,300,2014-02-20 23:30:00
3:00 AM,62,55,72,30.11,6,WNW,6.9,,,,Haze,300,2014-02-21 00:00:00
3:00 AM,62.6,55.4,77,30.09,5.6,WNW,6.9,-,N/A,,Unknown,300,2014-02-21 00:00:00
3:30 AM,60.8,55.4,82,30.09,5.6,WNW,5.8,-,N/A,,Unknown,300,2014-02-21 00:30:00
4:00 AM,60.8,55.4,82,30.09,-9999.0,North,-9999.0,-,N/A,,Unknown,0,2014-02-21 01:00:00
4:30 AM,60.8,55.4,82,30.12,5.6,WNW,5.8,-,N/A,,Unknown,300,2014-02-21 01:30:00
5:00 AM,60.8,55.4,82,30.12,5.0,WNW,5.8,-,N/A,,Unknown,300,2014-02-21 02:00:00
5:30 AM,60.8,55.4,82,30.12,5.0,WNW,6.9,-,N/A,,Unknown,300,2014-02-21 02:30:00
6:00 AM,61,55,75,30.14,4,WNW,5.8,,,,Haze,300,2014-02-21 03:00:00
6:00 AM,60.8,55.4,82,30.12,4.3,WNW,5.8,-,N/A,,Unknown,300,2014-02-21 03:00:00
6:30 AM,60.8,55.4,82,30.12,5.0,WNW,6.9,-,N/A,,Unknown,300,2014-02-21 03:30:00
7:00 AM,62.6,53.6,72,30.15,-9999.0,NW,9.2,-,N/A,,Clear,310,2014-02-21 04:00:00
7:30 AM,62.6,55.4,77,30.15,-9999.0,NW,10.4,-,N/A,,Clear,310,2014-02-21 04:30:00
8:00 AM,64.4,55.4,73,30.18,-9999.0,NW,10.4,-,N/A,,Clear,310,2014-02-21 05:00:00
8:30 AM,64.4,55.4,73,30.18,-9999.0,NW,12.7,-,N/A,,Clear,310,2014-02-21 05:30:00
9:00 AM,66,55,59,30.20,6,NW,10.4,,,,,320,2014-02-21 06:00:00
9:00 AM,66.2,55.4,68,30.18,-9999.0,NW,10.4,-,N/A,,Clear,320,2014-02-21 06:00:00
9:30 AM,68.0,51.8,56,30.18,-9999.0,NW,10.4,-,N/A,,Clear,310,2014-02-21 06:30:00
10:00 AM,69.8,51.8,53,30.18,-9999.0,NW,10.4,-,N/A,,Clear,310,2014-02-21 07:00:00
11:00 AM,73.4,50.0,44,30.15,-9999.0,NW,9.2,-,N/A,,Clear,320,2014-02-21 08:00:00
12:00 PM,76,45,22,30.14,7,NNW,9.2,,,,,340,2014-02-21 09:00:00
12:00 PM,75.2,44.6,34,30.12,-9999.0,NNW,9.2,-,N/A,,Clear,340,2014-02-21 09:00:00
1:00 PM,-9999,-9999,N/A,-9999,-9999.0,North,10.4,-,N/A,,Clear,10,2014-02-21 10:00:00
2:00 PM,75.2,50.0,41,30.09,-9999.0,NE,9.2,-,N/A,,Clear,50,2014-02-21 11:00:00
2:30 PM,75.2,50.0,41,30.09,-9999.0,NE,9.2,-,N/A,,Clear,40,2014-02-21 11:30:00
3:00 PM,74,51,33,30.09,9,NE,10.4,,,,,40,2014-02-21 12:00:00
3:00 PM,73.4,50.0,44,30.06,-9999.0,NE,10.4,-,N/A,,Clear,40,2014-02-21 12:00:00
3:30 PM,73.4,50.0,44,30.06,-9999.0,NNE,9.2,-,N/A,,Clear,30,2014-02-21 12:30:00
4:00 PM,73.4,50.0,44,30.06,-9999.0,North,10.4,-,N/A,,Clear,10,2014-02-21 13:00:00
4:30 PM,71.6,50.0,46,30.09,-9999.0,North,11.5,-,N/A,,Clear,10,2014-02-21 13:30:00
5:00 PM,69.8,55.4,60,30.09,-9999.0,North,9.2,-,N/A,,Clear,10,2014-02-21 14:00:00
5:30 PM,69.8,55.4,60,30.09,-9999.0,North,9.2,-,N/A,,Clear,10,2014-02-21 14:30:00
6:00 PM,69,58,59,30.11,7,North,8.1,,,,,0,2014-02-21 15:00:00
6:00 PM,68.0,57.2,68,30.09,-9999.0,North,8.1,-,N/A,,Clear,360,2014-02-21 15:00:00
6:30 PM,68.0,57.2,68,30.09,-9999.0,North,9.2,-,N/A,,Clear,360,2014-02-21 15:30:00
7:00 PM,68.0,51.8,56,30.09,-9999.0,North,8.1,-,N/A,,Clear,360,2014-02-21 16:00:00
7:30 PM,68.0,51.8,56,30.12,-9999.0,North,6.9,-,N/A,,Clear,360,2014-02-21 16:30:00
8:00 PM,68.0,51.8,56,30.12,-9999.0,NNW,8.1,-,N/A,,Clear,340,2014-02-21 17:00:00
8:30 PM,68.0,51.8,56,30.12,-9999.0,NNW,6.9,-,N/A,,Clear,330,2014-02-21 17:30:00
9:00 PM,67,50,44,30.14,9,NW,4.6,,,,,320,2014-02-21 18:00:00
9:00 PM,68.0,50.0,52,30.12,-9999.0,NW,4.6,-,N/A,,Clear,320,2014-02-21 18:00:00
9:30 PM,66.2,50.0,56,30.12,-9999.0,NNW,5.8,-,N/A,,Clear,330,2014-02-21 18:30:00
10:00 PM,66.2,51.8,60,30.12,-9999.0,NW,5.8,-,N/A,,Clear,320,2014-02-21 19:00:00
10:30 PM,64.4,53.6,68,30.12,-9999.0,NNW,6.9,-,N/A,,Clear,330,2014-02-21 19:30:00
11:00 PM,64.4,53.6,68,30.09,-9999.0,NNW,6.9,-,N/A,,Clear,340,2014-02-21 20:00:00